DELTA 1 DEB, 29062

Orbit data source: Space-Track

DELTA 1 DEB, 29062 is space debris in LEO originally from a launch on Thu, 04 Jul 1968 UTC launched from the Air Force Western Test Range (AFWTR). Debris objects in space refer to the collection of defunct objects orbiting the Earth. Examples of debris include non-operational satellites, rocket bodies, and fragments generated from explosions, collisions, or faulty payload assembly.

Loading next visibility...
Identifier
29062, 1968-055V
Orbit
LEO
Country
Flag of USUS
Related business
Manufacturer
Unknown
Mission
Spacecraft
Bus & Motor
Unknown
Mass
Unknown
Launch date (UTC)
1968-07-04 (58 years ago)
Launch vehicle
Unknown
Launch site
Air Force Western Test Range (AFWTR)
Object type
Payload
Rocket body
Debris
Shape & HBR
Unknown shape, 0.1 m
Radar Cross Section
Small (<0.1 m²)

Expand to show TLE details & history
Last TLE update: 2 months ago

TLE from 2 months ago
0 DELTA 1 DEB
1 29062U 68055V   26208.89621308  .00023417  00000-0  11995-1 0  9991
2 29062 120.6016 269.6362 1270131 183.5067 175.6173 12.25327368593956
Epoch: 2026-07-27T21:30Z
TLE epoch observation values (Epoch: 2026-07-27T21:30:32.810Z)
Latitude
-0.00001°
Longitude
1.42628°
Altitude
2,577.939 km
Speed
6.236 km/s
True Right ascension
17h 58m 32s
True Declination
0° 00' 00"
Sunlit
Object was in full shadow at epoch
Visualization orbit readout
Latitude
Unknown
Longitude
Unknown
Altitude
Unknown
Speed
Unknown
Apparent Right ascension
Unknown
Apparent Declination
Unknown
Sunlit
N/A
Visualization observer readout
Local Sidereal Time
15:03:07
Azimuth
Unknown
Elevation
Unknown
Doppler factor
Unknown
Orbital elements
Apogee altitude
2,578.159 km
Perigee altitude
559.43 km
Semi-major axis
7,946.932 km
Eccentricity
0.12701
Inclination
120.6016°
RAAN
269.6362°
Arg. of periapsis
183.5067°
True anomaly
176.57684°
Mean anomaly
175.6173°
Eccentric anomaly
176.11089°
Mean motion
3.06368 °/min
Orbital period
117.51 mins
BSTAR
0.011995
Loading maneuver chart data...
Computing Atmospheric mass density...
Loading historical data...
Loading historical data...
Loading historical data...
Loading historical data...
Loading historical data...
Loading historical data...
Loading historical data...

Documentation

Showing up to 5 results
|